Regional Weather Roundup
Issued by NWS

Home | Current Version | Previous Version | Graphics & Text | Print | Product List | Glossary On
Versions: 1 2 3 4 5 6 7 8 9 10 11 12 13 14 15 16 17 18 19 20 21 22 23 24 25 26 27 28 29 30 31 32 33 34 35 36 37 38 39 40 41 42 43 44 45 46 47 48 49 50
000
ASUS43 KMKX 311510
RWRWI

WISCONSIN REGIONAL WEATHER ROUNDUP
NATIONAL WEATHER SERVICE MILWAUKEE/SULLIVAN WI
900 AM CST SAT JAN 31 2015

NOTE: "FAIR" INDICATES FEW OR NO CLOUDS BELOW 12,000 FEET WITH NO
SIGNIFICANT WEATHER AND/OR OBSTRUCTIONS TO VISIBILITY.

WIZ001-002-006>008-014>016-023>028-311600-
NORTHWEST WISCONSIN

CITY           SKY/WX    TMP DP  RH WIND       PRES   REMARKS
SUPERIOR ARPT  CLOUDY    22  14  71 N10       30.23S WCI  11
ASHLAND        CLOUDY    22  15  75 NW13      30.20R WCI  10
HAYWARD        CLOUDY    22  15  75 N7        30.17R WCI  13
SIREN          CLOUDY    24  18  77 N8        30.20R WCI  15
CUMBERLAND     CLOUDY    23  19  86 N7        30.16R WCI  15
RICE LAKE      CLOUDY    24  19  83 N8        30.19R WCI  15
CHETEK         CLOUDY    22  18  85 NW5       30.17R WCI  16
LADYSMITH      CLOUDY    22  17  81 N6        30.17R WCI  14
EAU CLAIRE     CLOUDY    24  15  68 NE5       30.16R WCI  18
MENOMONIE      CLOUDY    25  19  76 NW6       30.17S WCI  18
NEW RICHMOND   CLOUDY    27  23  85 N10       30.18R WCI  17
OSCEOLA        CLOUDY    27  22  82 N12       30.22R WCI  16
$$

WIZ003>005-009-010-017-018-311600-
NORTH CENTRAL WISCONSIN

CITY           SKY/WX    TMP DP  RH WIND       PRES   REMARKS
MANITOWISH WTR CLOUDY    19  16  89 NW3       30.10S
ARBOR VITAE    CLOUDY    22  19  87 N7        30.10S WCI  13
WOODRUFF       CLOUDY    22  19  87 N7        30.10S WCI  13
RHINELANDER    CLOUDY    20  15  81 NW3       30.10S
EAGLE RIVER    CLOUDY    19  15  84 NW3       30.09S
LAND O LAKES   CLOUDY    20  17  88 NW5       30.10R WCI  14
PHILLIPS       CLOUDY    19  16  86 NW5       30.12S WCI  13
TOMAHAWK       CLOUDY    20  16  83 CALM      30.13R
MEDFORD        CLOUDY    20  16  84 N6        30.12R WCI  13
MERRILL        CLOUDY    21  16  81 CALM      30.13R
$$

WIZ029-030-035-036-043>047-311600-
CENTRAL WISCONSIN

CITY           SKY/WX    TMP DP  RH WIND       PRES   REMARKS
WAUSAU         CLOUDY    20  13  74 NW5       30.12R WCI  13
MOSINEE        CLOUDY    21  16  79 W3        30.14R
MARSHFIELD     CLOUDY    22  14  71 W5        30.13S WCI  16
STEVENS POINT  CLOUDY    21  12  70 CALM      30.14F
WAUPACA        CLOUDY    26  17  69 S3        30.16S
WAUTOMA        CLOUDY    23  17  78 CALM      30.17S
WISC RAPIDS    CLOUDY    24  15  68 CALM      30.15F
CAMP DOUGLAS   CLOUDY    27  21  80 W3        30.16R
$$

WIZ011>013-019>022-031-037>040-048>050-311600-
NORTHEAST WISCONSIN

CITY           SKY/WX    TMP DP  RH WIND       PRES   REMARKS
ANTIGO         CLOUDY    19  15  83 NW7       30.11R WCI  10
SHAWANO        CLOUDY    24  14  66 CALM      30.16R
OCONTO         CLOUDY    23  14  69 MISG      30.16R
STURGEON BAY   CLOUDY    21  12  68 W7        30.16S WCI  13
GREEN BAY      CLOUDY    24  17  74 SW7       30.16S WCI  16
MANITOWOC      CLOUDY    27  19  72 W8        30.17R WCI  19
APPLETON       CLOUDY    25  16  68 SW7       30.16R WCI  17
CLINTONVILLE   CLOUDY    23  14  68 CALM      30.15S
OSHKOSH        CLOUDY    25  17  72 W6        30.16S WCI  18
$$

WIZ032>034-041-042-053>061-311600-
SOUTHWEST WISCONSIN

CITY           SKY/WX    TMP DP  RH WIND       PRES   REMARKS
LA CROSSE      CLOUDY    26  17  68 S7        30.18R WCI  18
SPARTA         CLOUDY    27  17  68 CALM      30.18S
VIROQUA        CLOUDY    25  19  79 W5        30.14S WCI  19
BOSCOBEL       MOSUNNY   20  15  81 CALM      30.20S
PRAIRIE DU CHI MOSUNNY   22  17  82 CALM      30.19S
PLATTEVILLE    PTSUNNY   25  21  84 S6        30.17S WCI  18
$$

WIZ056-057-062-063-064-067-068-311600-
SOUTH CENTRAL WISCONSIN

CITY           SKY/WX    TMP DP  RH WIND       PRES   REMARKS
REEDSBURG      CLOUDY    25  17  73 SW6       30.17R WCI  18
BARABOO/DELLS  CLOUDY    25  17  72 SW5       30.16S WCI  19
LONE ROCK      SUNNY     20  15  81 CALM      30.19S
MINERAL POINT  MOSUNNY   25  19  80 CALM      30.16S
MADISON        PTSUNNY   25  16  68 VRB3      30.17F
MIDDLETON      SUNNY     27  18  67 SW3       30.18S
WATERTOWN      SUNNY     25  19  77 SW7       30.17S WCI  17
MONROE         MOSUNNY   27  21  80 SW12      30.16F WCI  16
JANESVILLE     SUNNY     27  19  74 SW3       30.19F
$$

WIZ051-052-058>065-066-070>072-311600-
SOUTHEAST WISCONSIN

CITY           SKY/WX    TMP DP  RH WIND       PRES   REMARKS
MILWAUKEE      MOSUNNY   29  18  63 W13       30.18F WCI  19
WAUKESHA       SUNNY     25  18  74 SW12      30.18F WCI  14
MILWAUKEE/TIMM SUNNY     27  18  69 W9        30.19F WCI  17
RACINE         SUNNY     29  18  63 SW10G18   30.20F WCI  20
BURLINGTON     SUNNY     26  19  72 SW9       30.19S WCI  17
KENOSHA        SUNNY     30  19  63 SW14      30.19F WCI  19
FOND DU LAC    CLOUDY    24  17  74 SW6       30.16F WCI  17
SHEBOYGAN      CLOUDY    27  17  66 W10       30.16F WCI  17
WEST BEND      SUNNY     27  18  69 W10       30.16F WCI  17
JUNEAU         SUNNY     23  18  80 SW7       30.18S WCI  15
$$

LSZ147-162-311600-
LAKE SUPERIOR

STATION/POSITION TIME  TEMP    WIND        PRES    WAVE
                       AIR SEA DIR/SP/G            HT/PER
                 (UTC) (F)     (DEG/KT/KT) (MB)    (FT/S)
DEVILS ISLAND    1500   20     350/ 19/ 21 1024.4R
PORT WING        1440   23     330/ 13/ 16 1023.4R
SAXON HARBOR     1400   23     270/  2/  7 1022.0R
$$

LMZ867-665-643>646-311600-
LAKE MICHIGAN

STATION/POSITION TIME  TEMP    WIND        PRES    WAVE
                       AIR SEA DIR/SP/G            HT/PER
                 (UTC) (F)     (DEG/KT/KT) (MB)    (FT/S)
NORTHPORT PIER   1420   22     270/  3/ 10 1021.0R
SISTER BAY       1413   22     280/  8/  9   N/A
KEWAUNEE LAKESHO 1400   24     270/  5/  7 1020.4R
SHEBOYGAN LAKESH 1500   27     260/ 10/ 12 1022.6F
PORT WASHINGTON  1440   28     270/ 10/ 14 1022.4S
MILWAUKEE LAKESH 1400   27     260/ 11/ 14   N/A
KENOSHA   LAKESH 1500   30     250/ 10/ 15 1022.7S
$$

TC  - TEMPERATURE IN CELSIUS
VSB - VISIBILITY IN STATUTE MILES
WCI - WIND CHILL INDEX
HX  - HEAT INDEX



USA.gov is the U.S. government's official web portal to all federal, state and local government web resources and services.